(88264) 2001 KN20
ephemeris date magn radius delta ra dec elong phase
Today27 Jul 202619.41.321 AU0.973 AU13h50m-03°02'83.2°49.8°
(88264) 2001 KN20 - 2026-07-27
astro.vanbuitenen.nl


 
-1 year
-1 month
-1 day
Now
+1 day
+1 month
+1 year

The interactive orbit chart above shows the body's path through the solar system and its position at the given date. Green and blue lines are shown perpendicular to the ecliptic plane: Green if the path is above the ecliptic plane, blue if it is below. (Left-click and drag to rotate the view; Right-click and drag to move the view; Use scroll wheel to zoom in our out.)

The orbital elements of 2001 KN20 are:

            e (Eccentricity)                : 0.4534043
            a (Semimajor axis)              : 2.1470223
            i (Inclination)                 : 12.07959
            Ω (Longitude of ascending node) : 104.92021
            ω (Argument of perihelion)      : 201.44768
            M (Mean anomaly)                : 326.78225
            Epoch                           : 2026 Jun 09

            L (Longitude of perihelion)     : 125.93485
            B (Latitude of perihelion)      : -4.38856
            P (Orbital period in years)     : 3.15            
        

The light curve chart below shows the estimated development of the minor planet's magnitude.


The all-sky chart below shows the path of the minor planet over the same period as the light curve. The current position is marked yellow.





The following chart shows the path of the minor planet in the next few days. The field of view is optimized for (~10x50) binoculars and finderscopes.




Ephemerides:
Date       Time       RA (2000)    DEC (2000)    delta   radius  elong  phase   PA    magn
2026-07-27 00:00 UT   13 50 41.5   -03 02 44     0.973    1.321   83.2   49.8   110   19.4 
2026-07-27 14:08 UT   13 51 45.6   -03 17 05     0.973    1.318   83.0   49.9   110   19.4 
2026-07-28 00:00 UT   13 52 30.7   -03 27 08     0.974    1.316   82.8   49.9   110   19.4 
2026-07-29 00:00 UT   13 54 21.8   -03 51 41     0.974    1.312   82.5   50.1   110   19.4 
2026-07-30 00:00 UT   13 56 14.9   -04 16 21     0.975    1.307   82.1   50.3   110   19.4 
2026-07-31 00:00 UT   13 58 09.9   -04 41 08     0.976    1.303   81.7   50.4   109   19.4 
2026-08-01 00:00 UT   14 00 07.0   -05 06 03     0.976    1.298   81.4   50.6   109   19.4 
2026-08-02 00:00 UT   14 02 05.9   -05 31 05     0.977    1.294   81.0   50.8   109   19.4 
2026-08-03 00:00 UT   14 04 06.9   -05 56 14     0.977    1.290   80.7   50.9   109   19.4 
2026-08-04 00:00 UT   14 06 09.9   -06 21 30     0.978    1.286   80.4   51.1   109   19.4 
2026-08-05 00:00 UT   14 08 14.8   -06 46 52     0.978    1.282   80.0   51.2   109   19.4 
2026-08-06 00:00 UT   14 10 21.8   -07 12 20     0.979    1.278   79.7   51.4   109   19.4 
2026-08-07 00:00 UT   14 12 30.8   -07 37 55     0.979    1.274   79.4   51.5   109   19.4 
2026-08-08 00:00 UT   14 14 41.8   -08 03 35     0.980    1.270   79.1   51.7   108   19.4 
2026-08-09 00:00 UT   14 16 54.9   -08 29 20     0.980    1.266   78.8   51.8   108   19.4 


    Terminology:
            
    delta:  distance between minor planet and earth in AU
    radius: distance between minor planet and sun in AU
    magn:   magnitude (brightness) estimate    
    ra:     right ascension in hours (24h = 360deg)
    dec:    declination in degrees
    elong:  elongation in degrees (angle sun-earth-minor planet)    
    phase:  phase angle in degrees (angle sun-minor planet-earth)        
    AU:     Astronomical Unit (mean distance between earth and sun: 149597870.7 km
    

Orbital elements provided by the MPC (Minor Planet Center).
Calculations by a modified version of AAPlus, a C# implementation of the AA+ project by PJ Naughter from the algorithms presented in the book "Astronomical Algorithms" by Jean Meeus.
NGC2000 dso catalog and star labels from VizieR as provided by the Strasbourg astronomical Data Center.
Tycho2 catalog from the ESO archive.